Showing default

VANGUARD 1, 5

Orbit data source: Space-Track

VANGUARD 1, 5 is a payload satellite owned by NRL (US) in LEO that was launched on Mon, 17 Mar 1958 UTC via a VANGUARD launch vehicle from the Air Force Eastern Test Range (AFETR). Payload-class satellites include a variety of spacecraft equipped with specific instruments for various scientific and technological missions. These include communications satellites like Starlink; space stations such as the ISS; scientific satellites like the Hubble; Earth observation satellites from companies like Planet Labs, Umbra, and HawkEye 360; GPS; miniature CubeSats for education and research; and military/defense satellites.

Loading next visibility...
Identifier
5, 1958-002B
Orbit
LEO
Country
Flag of USUS
Related business
Manufacturer
NRL
Mission
Spacecraft
Bus & Motor
NRL 6", Unknown motor
Mass
2 kg wet, 2 kg dry
Launch date (UTC)
1958-03-17 (68 years ago)
Launch vehicle
VANGUARD
Launch site
Air Force Eastern Test Range (AFETR)
Object type
Payload
Rocket body
Debris
Shape & HBR
Unknown
Radar Cross Section
Small (<0.1 m²)

Expand to show TLE details & history
Last TLE update: 11 hours ago

TLE from 11 hours ago
0 VANGUARD 1
1 00005U 58002B   25296.44128684  .00000007  00000-0  11179-4 0  9991
2 00005  34.2482 324.9912 1841574 151.0667 220.5891 10.85925080417542
Epoch: 2025-10-23T10:35Z
TLE epoch observation values (Epoch: 2025-10-23T10:35:27.182Z)
Latitude
-0.00004°
Longitude
134.02739°
Altitude
3,540.484 km
Speed
5.842 km/s
True Right ascension
21h 39m 57s
True Declination
0° 00' 00"
Sunlit
Object was in daylight at epoch
Visualization orbit readout
Latitude
Unknown
Longitude
Unknown
Altitude
Unknown
Speed
Unknown
Apparent Right ascension
Unknown
Apparent Declination
Unknown
Sunlit
N/A
Visualization observer readout
Local Sidereal Time
16:44:17
Azimuth
Unknown
Elevation
Unknown
Doppler factor
Unknown
Orbital elements
Apogee altitude
3,825.48 km
Perigee altitude
651.794 km
Semi-major axis
8,616.774 km
Eccentricity
0.18416
Inclination
34.2482°
RAAN
324.9912°
Arg. of periapsis
151.0667°
True anomaly
208.98858°
Mean anomaly
220.5891°
Eccentric anomaly
214.59785°
Mean motion
2.71348 °/min
Orbital period
132.67 mins
BSTAR
0.000011179
Loading maneuver chart data...
Computing Atmospheric mass density...
Loading historical data...
Loading historical data...
Loading historical data...
Loading historical data...
Loading historical data...
Loading historical data...
Loading historical data...
Other satellites on launch #2 in the year 1958 (1958-03-17 UTC)

Documentation

Showing up to 5 results
|